FW1267 Weather Reports


time (UTC)temp
C
wind
direction
speed
KPH
gust
KPH
rain 1hr
cm
rain 24hr
cm
rain mn
cm
humidity
%
barometer
mb
20260510071529 10 38 0.0 4.8 0.00 0.18 0.00 90 1011.2
20260510070029 10 82 1.6 8.0 0.00 0.18 0.00 90 1010.9
20260510064529 11 111 0.0 0.0 0.00 0.18 0.00 90 1010.3
20260510063034 10 111 0.0 0.0 0.00 0.18 0.00 90 1010.4
20260510061525 10 111 0.0 0.0 0.00 0.18 0.00 89 1010.6
20260510060024 10 111 0.0 0.0 0.00 0.18 0.00 88 1010.8
20260510054519 11 111 0.0 0.0 0.00 0.18 0.00 88 1010.6
20260510053017 11 111 0.0 0.0 0.00 0.18 0.00 88 1010.2
20260510051517 11 111 0.0 0.0 0.00 0.18 0.00 88 1010.3
20260510050015 11 111 0.0 0.0 0.00 0.18 0.00 88 1010.3
20260510044515 11 111 0.0 0.0 0.00 0.18 0.00 88 1010.4
20260510043014 11 111 0.0 0.0 0.00 0.18 0.00 87 1010.4
20260510041512 12 111 0.0 0.0 0.00 0.18 0.00 87 1010.5
20260510040012 12 111 0.0 0.0 0.00 0.18 0.18 87 1010.5
20260510034509 12 111 0.0 0.0 0.00 0.18 0.18 87 1010.6
20260510033011 12 111 0.0 0.0 0.00 0.18 0.18 87 1010.5
20260510031516 12 111 0.0 0.0 0.00 0.18 0.18 87 1010.6
20260510030011 12 111 0.0 0.0 0.00 0.18 0.18 86 1010.6
20260510024507 12 111 0.0 0.0 0.00 0.18 0.18 85 1010.5
20260510023007 12 111 0.0 3.2 0.00 0.18 0.18 85 1010.3
20260510021514 12 111 0.0 1.6 0.00 0.18 0.18 84 1010.3
20260510020007 13 111 0.0 1.6 0.00 0.18 0.18 83 1010.2
20260510014507 13 103 0.0 3.2 0.00 0.18 0.18 82 1010.0
20260510013005 13 103 0.0 3.2 0.00 0.18 0.18 82 1009.8
20260510011505 13 103 0.0 4.8 0.00 0.18 0.18 81 1009.6
20260510010005 13 103 0.0 1.6 0.00 0.18 0.18 81 1009.4
20260510004506 13 103 0.0 0.0 0.00 0.18 0.18 81 1009.4
20260510003004 14 103 0.0 1.6 0.00 0.18 0.18 80 1009.3
20260510001504 14 103 0.0 0.0 0.00 0.18 0.18 79 1009.0
20260510000006 15 103 0.0 1.6 0.00 0.18 0.18 78 1009.0
20260509234502 15 103 0.0 3.2 0.00 0.18 0.18 77 1009.0
20260509233001 15 103 0.0 6.4 0.00 0.18 0.18 75 1008.8
20260509231600 15 113 0.0 0.0 0.00 0.18 0.18 74 1008.8
20260509230059 16 113 0.0 0.0 0.00 0.18 0.18 74 1008.9
20260509224602 16 113 0.0 1.6 0.00 0.18 0.18 72 1008.9
20260509223106 16 130 0.0 3.2 0.00 0.18 0.18 72 1008.8
20260509221606 17 130 0.0 1.6 0.00 0.18 0.18 72 1008.8
20260509220055 17 130 0.0 4.8 0.00 0.18 0.18 72 1009.0
20260509214606 17 130 0.0 4.8 0.00 0.18 0.18 74 1009.1
20260509213055 16 130 0.0 1.6 0.00 0.18 0.18 75 1009.2
20260509211558 16 130 0.0 0.0 0.00 0.18 0.18 76 1009.6
20260509210112 16 130 1.6 4.8 0.00 0.18 0.18 75 1009.3
20260509204558 16 124 0.0 1.6 0.00 0.18 0.18 74 1009.1
20260509203052 16 124 0.0 4.8 0.00 0.18 0.18 74 1009.3
20260509201557 17 144 0.0 0.0 0.00 0.18 0.18 72 1009.2
20260509200100 17 144 0.0 1.6 0.00 0.18 0.18 72 1009.5
20260509194547 16 151 0.0 3.2 0.00 0.18 0.18 74 1009.7
20260509193045 16 217 0.0 4.8 0.00 0.18 0.18 75 1009.9
20260509191645 16 130 0.0 4.8 0.00 0.18 0.18 75 1010.0
20260509190049 15 106 0.0 4.8 0.00 0.18 0.18 76 1010.1
20260509184538 15 150 0.0 4.8 0.00 0.18 0.18 82 1010.3
20260509183035 14 224 0.0 6.4 0.00 0.18 0.18 86 1010.6
20260509181538 12 103 0.0 0.0 0.00 0.18 0.18 86 1010.8
20260509180133 12 103 0.0 0.0 0.00 0.18 0.18 87 1010.9
20260509174533 12 225 0.0 3.2 0.00 0.18 0.18 86 1010.8
20260509173032 12 225 0.0 3.2 0.00 0.18 0.18 85 1011.1
20260509171538 12 226 0.0 1.6 0.00 0.18 0.18 86 1011.2
20260509170032 12 226 0.0 1.6 0.00 0.18 0.18 86 1011.2
20260509164531 12 226 3.2 4.8 0.00 0.18 0.18 84 1011.1
20260509163030 12 222 0.0 8.0 0.03 0.18 0.18 85 1011.3
20260509161530 12 233 0.0 4.8 0.10 0.18 0.18 85 1011.4
20260509160030 11 233 0.0 0.0 0.18 0.18 0.18 87 1011.2
20260509154528 11 233 0.0 0.0 0.18 0.18 0.18 86 1011.0
20260509153027 11 233 0.0 0.0 0.15 0.15 0.15 84 1011.4
20260509151526 12 233 0.0 0.0 0.08 0.08 0.08 83 1011.5
20260509150033 12 233 0.0 0.0 0.00 0.00 0.00 80 1011.6
20260509144531 13 233 0.0 1.6 0.00 0.00 0.00 78 1011.9
20260509143024 13 233 0.0 3.2 0.00 0.00 0.00 77 1012.0
20260509141523 13 233 0.0 4.8 0.00 0.00 0.00 74 1011.7
20260509140022 13 224 1.6 9.7 0.00 0.00 0.00 71 1011.2
20260509134522 13 235 0.0 8.0 0.00 0.00 0.00 74 1011.1
20260509133021 13 254 0.0 3.2 0.00 0.00 0.00 74 1010.9
20260509131525 12 254 1.6 4.8 0.00 0.00 0.00 74 1011.0
20260509130020 12 254 0.0 4.8 0.00 0.00 0.00 75 1010.9
20260509124522 12 238 0.0 0.0 0.00 0.00 0.00 76 1011.0
20260509123019 12 230 0.0 4.8 0.00 0.00 0.00 76 1010.9
20260509121525 12 121 0.0 3.2 0.00 0.00 0.00 78 1011.0
20260509120019 12 121 0.0 1.6 0.00 0.00 0.00 76 1011.1
20260509114525 12 117 0.0 0.0 0.00 0.00 0.00 78 1010.6
20260509113018 11 117 0.0 0.0 0.00 0.00 0.00 77 1010.6
20260509111517 11 117 0.0 0.0 0.00 0.00 0.00 77 1010.7
20260509110017 11 117 0.0 0.0 0.00 0.00 0.00 76 1010.3
20260509104517 11 117 0.0 0.0 0.00 0.00 0.00 78 1010.4
20260509103015 11 117 0.0 0.0 0.00 0.00 0.00 78 1010.4
20260509101526 11 117 0.0 0.0 0.00 0.00 0.00 78 1010.3
20260509100021 11 117 0.0 0.0 0.00 0.00 0.00 78 1010.3
20260509094517 11 117 0.0 0.0 0.00 0.00 0.00 78 1010.1
20260509093011 11 117 0.0 0.0 0.00 0.00 0.00 79 1010.2
20260509091518 11 117 0.0 0.0 0.00 0.00 0.00 79 1010.4
20260509090008 11 117 0.0 0.0 0.00 0.00 0.00 79 1010.4
20260509084513 11 117 0.0 0.0 0.00 0.00 0.00 79 1010.6
20260509083006 11 117 0.0 0.0 0.00 0.00 0.00 79 1010.8
20260509081505 12 117 0.0 0.0 0.00 0.00 0.00 79 1010.9
20260509080003 12 117 0.0 0.0 0.00 0.00 0.00 79 1010.9
20260509074503 12 117 0.0 0.0 0.00 0.00 0.00 79 1010.9
20260509073103 12 117 0.0 0.0 0.00 0.00 0.00 79 1011.0